Location: Carnetin
(48.9010°N, 2.7059°E)
Time: 05:02:23
(UTC+00:00)

USA 229 - Pass Details

Date: 05 June 2022
Orbit: 938 x 1274 km, 63.4° (Epoch: 24 May)

Event Time Altitude Azimuth Distance (km) Brightness Sun altitude
Rises 22:20:08 0° 316° (NW) 3,973 8.0 -15.8°
Reaches altitude 10° 22:22:49 10° 312° (NW) 3,057 7.1 -16.0°
Maximum altitude 22:29:54 53° 239° (WSW) 1,463 4.3 -16.4°
Enters shadow 22:34:44 23° 173° (S) 2,375 4.9 -16.6°
